TimeMST,TemperatureF,Dew PointF,Humidity,Sea Level PressureIn,VisibilityMPH,Wind Direction,Wind SpeedMPH,Gust SpeedMPH,PrecipitationIn,Events,Conditions,WindDirDegrees,DateUTC
12:03 AM,28.4,26.6,93,30.00,4.0,East,19.6,25.3,N/A,,Overcast,90,2012-11-09 07:03:00
12:39 AM,28.4,26.6,93,29.99,2.5,East,19.6,26.5,N/A,,Overcast,80,2012-11-09 07:39:00
12:49 AM,28.4,26.6,93,29.99,1.0,East,15.0,26.5,N/A,,Overcast,80,2012-11-09 07:49:00
12:56 AM,27.0,26.1,96,30.07,0.8,East,20.7,27.6,N/A,,Mist,80,2012-11-09 07:56:00
1:05 AM,26.6,26.6,100,29.99,1.5,East,18.4,27.6,N/A,,Overcast,90,2012-11-09 08:05:00
1:23 AM,26.6,26.6,100,29.98,0.8,East,23.0,31.1,N/A,,Mist,90,2012-11-09 08:23:00
1:56 AM,27.0,26.1,96,30.06,0.5,East,18.4,26.5,N/A,Fog,Light Freezing Fog,90,2012-11-09 08:56:00
2:22 AM,26.6,24.8,93,29.99,1.0,East,20.7,28.8,N/A,,Mist,90,2012-11-09 09:22:00
2:56 AM,26.1,25.0,96,30.06,0.8,ESE,20.7,-,N/A,,Mist,110,2012-11-09 09:56:00
3:05 AM,26.6,24.8,93,29.98,0.5,East,18.4,-,0.00,Fog-Rain,Light Freezing Rain,100,2012-11-09 10:05:00
3:15 AM,26.6,24.8,93,29.98,0.2,East,15.0,25.3,0.00,Fog-Rain,Light Freezing Rain,100,2012-11-09 10:15:00
3:22 AM,26.6,24.8,93,29.97,0.2,East,18.4,-,0.00,Fog-Rain,Light Freezing Rain,90,2012-11-09 10:22:00
3:39 AM,26.6,24.8,93,29.97,0.2,East,20.7,25.3,0.00,Fog-Rain,Light Freezing Rain,90,2012-11-09 10:39:00
3:49 AM,26.6,24.8,93,29.97,0.5,East,17.3,-,0.00,Fog-Rain,Light Freezing Rain,90,2012-11-09 10:49:00
3:56 AM,25.0,24.1,96,30.05,0.8,East,18.4,25.3,0.00,Rain,Light Freezing Rain,100,2012-11-09 10:56:00
4:38 AM,24.8,24.8,100,29.95,1.2,East,16.1,-,0.00,Rain,Light Freezing Rain,90,2012-11-09 11:38:00
4:56 AM,25.0,24.1,96,30.04,2.0,East,16.1,-,0.00,Rain,Light Freezing Rain,100,2012-11-09 11:56:00
5:04 AM,24.8,23.0,93,29.94,6.0,East,20.7,27.6,0.00,Rain,Light Freezing Rain,90,2012-11-09 12:04:00
5:13 AM,24.8,23.0,93,29.94,4.0,East,17.3,28.8,0.00,,Overcast,90,2012-11-09 12:13:00
5:23 AM,24.8,23.0,93,29.95,1.8,East,20.7,27.6,0.00,,Overcast,100,2012-11-09 12:23:00
5:56 AM,25.0,23.0,92,30.02,0.8,East,19.6,27.6,0.00,,Mist,90,2012-11-09 12:56:00
6:56 AM,25.0,24.1,96,30.01,0.8,East,19.6,26.5,N/A,,Mist,100,2012-11-09 13:56:00
7:08 AM,24.8,24.8,100,29.91,0.8,East,19.6,27.6,0.00,Rain,Light Freezing Rain,100,2012-11-09 14:08:00
7:17 AM,24.8,24.8,100,29.91,1.2,East,20.7,27.6,0.00,Rain,Light Freezing Rain,100,2012-11-09 14:17:00
7:38 AM,24.8,24.8,100,29.92,2.0,East,17.3,-,0.00,Rain,Light Freezing Rain,90,2012-11-09 14:38:00
7:46 AM,24.8,24.8,100,29.92,1.2,East,18.4,27.6,0.00,Rain,Light Freezing Rain,90,2012-11-09 14:46:00
7:56 AM,26.1,25.0,96,30.02,1.2,East,16.1,25.3,0.00,Rain,Light Freezing Rain,90,2012-11-09 14:56:00
8:56 AM,25.0,24.1,96,29.99,1.5,East,23.0,29.9,0.00,Rain,Light Freezing Rain,100,2012-11-09 15:56:00
9:26 AM,26.6,24.8,93,29.89,2.0,East,19.6,28.8,0.00,Rain,Light Freezing Rain,90,2012-11-09 16:26:00
9:45 AM,26.6,24.8,93,29.90,1.8,East,17.3,26.5,0.00,Rain,Light Freezing Rain,100,2012-11-09 16:45:00
9:56 AM,26.1,25.0,96,29.99,1.5,East,18.4,-,0.00,Rain,Light Freezing Rain,100,2012-11-09 16:56:00
10:45 AM,26.6,24.8,93,29.89,2.5,East,21.9,28.8,0.00,Rain,Light Freezing Rain,100,2012-11-09 17:45:00
10:56 AM,26.1,25.0,96,29.98,2.0,East,20.7,28.8,0.00,Rain,Light Freezing Rain,100,2012-11-09 17:56:00
11:26 AM,26.6,24.8,93,29.87,2.0,East,19.6,25.3,0.00,Rain,Light Freezing Rain,90,2012-11-09 18:26:00
11:43 AM,26.6,24.8,93,29.86,3.0,East,17.3,27.6,0.00,Rain,Light Freezing Rain,100,2012-11-09 18:43:00
11:56 AM,27.0,26.1,96,29.95,2.0,East,16.1,-,0.00,Rain,Light Freezing Rain,90,2012-11-09 18:56:00
12:05 PM,26.6,24.8,93,29.85,2.0,East,20.7,25.3,0.00,Rain,Light Freezing Rain,100,2012-11-09 19:05:00
12:19 PM,26.6,26.6,100,29.84,3.0,East,19.6,27.6,0.00,Rain,Light Freezing Rain,100,2012-11-09 19:19:00
12:56 PM,27.0,25.0,92,29.91,4.0,East,18.4,29.9,0.00,Rain,Light Freezing Rain,90,2012-11-09 19:56:00
1:13 PM,26.6,24.8,93,29.82,2.5,East,20.7,28.8,0.00,Rain,Light Freezing Rain,90,2012-11-09 20:13:00
1:21 PM,26.6,24.8,93,29.82,4.0,East,19.6,28.8,0.00,Rain,Light Freezing Rain,90,2012-11-09 20:21:00
1:46 PM,26.6,24.8,93,29.82,5.0,East,20.7,27.6,0.00,Rain,Light Freezing Rain,90,2012-11-09 20:46:00
1:56 PM,26.1,25.0,96,29.92,3.0,East,20.7,26.5,0.00,Rain,Light Freezing Rain,90,2012-11-09 20:56:00
2:04 PM,26.6,24.8,93,29.83,2.5,East,19.6,26.5,0.00,Rain,Light Freezing Rain,90,2012-11-09 21:04:00
2:18 PM,26.6,24.8,93,29.82,1.8,East,21.9,-,0.00,Rain,Light Freezing Rain,80,2012-11-09 21:18:00
2:48 PM,26.6,24.8,93,29.82,1.8,East,20.7,26.5,0.00,Rain,Light Freezing Rain,90,2012-11-09 21:48:00
2:56 PM,26.1,25.0,96,29.92,2.0,East,18.4,27.6,0.00,Rain,Light Freezing Rain,90,2012-11-09 21:56:00
3:37 PM,26.6,24.8,93,29.81,1.8,East,19.6,-,0.00,Rain,Light Freezing Rain,80,2012-11-09 22:37:00
3:56 PM,26.1,24.1,92,29.91,1.8,East,17.3,26.5,0.00,Rain,Light Freezing Rain,80,2012-11-09 22:56:00
4:17 PM,26.6,24.8,93,29.81,2.0,East,18.4,26.5,0.00,Rain,Light Freezing Rain,80,2012-11-09 23:17:00
4:52 PM,26.6,24.8,93,29.81,3.0,East,18.4,-,0.00,Rain,Light Freezing Rain,90,2012-11-09 23:52:00
4:56 PM,26.1,24.1,92,29.90,3.0,East,19.6,-,0.00,Rain,Light Freezing Rain,90,2012-11-09 23:56:00
5:32 PM,26.6,24.8,93,29.84,2.5,East,15.0,21.9,0.00,Rain,Light Freezing Rain,100,2012-11-10 00:32:00
5:56 PM,26.1,25.0,96,29.92,2.5,East,17.3,-,0.00,Rain,Light Freezing Rain,90,2012-11-10 00:56:00
6:56 PM,26.1,24.1,92,29.89,2.5,East,20.7,27.6,0.00,Rain,Light Freezing Rain,80,2012-11-10 01:56:00
7:15 PM,24.8,24.8,100,29.81,2.0,East,19.6,25.3,0.00,Snow,Light Snow,90,2012-11-10 02:15:00
7:38 PM,24.8,24.8,100,29.81,1.5,East,19.6,25.3,0.02,Snow,Light Snow,100,2012-11-10 02:38:00
7:49 PM,24.8,23.0,93,29.80,3.0,East,18.4,24.2,0.02,Snow,Light Snow,90,2012-11-10 02:49:00
7:56 PM,25.0,23.0,92,29.90,5.0,East,18.4,24.2,0.02,Snow,Light Snow,90,2012-11-10 02:56:00
8:24 PM,24.8,23.0,93,29.80,2.5,East,18.4,25.3,0.00,Snow,Light Snow,90,2012-11-10 03:24:00
8:35 PM,24.8,23.0,93,29.81,3.0,East,13.8,24.2,0.00,Snow,Light Snow,80,2012-11-10 03:35:00
8:56 PM,25.0,24.1,96,29.90,3.0,ENE,13.8,-,0.00,Snow,Light Snow,70,2012-11-10 03:56:00
9:56 PM,24.1,23.0,96,29.88,6.0,ENE,12.7,-,0.00,,Overcast,60,2012-11-10 04:56:00
10:24 PM,24.8,23.0,93,29.77,3.0,ENE,16.1,-,N/A,,Overcast,70,2012-11-10 05:24:00
10:56 PM,24.1,23.0,96,29.87,3.0,ENE,13.8,-,N/A,,Overcast,70,2012-11-10 05:56:00
11:21 PM,24.8,23.0,93,29.76,2.5,ENE,11.5,-,0.00,Snow,Light Snow,60,2012-11-10 06:21:00
11:36 PM,24.8,23.0,93,29.76,3.0,NE,12.7,-,0.00,,Overcast,50,2012-11-10 06:36:00
11:56 PM,24.1,23.0,96,29.84,4.0,NE,12.7,-,0.00,,Overcast,50,2012-11-10 06:56:00